User: anonymous   Login
Location: Unspecified
(0.0000°N, 0.0000°E)
Time: 07:14:59
(UTC+00:00)
Language:

TATIANA - Orbit

View from above orbital plane
View from above orbital plane
View from above satellite
View from above satellite

Ground track
Ground track

The orbit data is extracted from the following two-line orbital elements,

1 28523U 05002C   17178.89269494 +.00000040 +00000-0 +20999-4 0  9999
2 28523 082.9488 002.4909 0037114 318.6429 041.1925 13.87431933629577
Epoch (UTC): 27 June 2017 21:25:28
Eccentricity: 0.0037114
inclination: 82.9488°
perigee height: 910 km
apogee height: 965 km
right ascension of ascending node: 2.4909°
argument of perigee: 318.6429°
revolutions per day: 13.87431933
mean anomaly at epoch: 41.1925°
orbit number at epoch: 62957

The dashed part of the orbit path shows where the satellite is in the earth's shadow,  

DLR